This is the latest recevied weather packets stored in our database for station/object WX2NJ. If no packets are shown the sender has not sent any weather packets the latest 10 day(s).
| Time | Temp. | Humidity | Pressure | Rain* | Wind** | Luminosity | Snow |
|---|---|---|---|---|---|---|---|
| 1777569069 | 13.33° C | 83% | 1011 hPa | 0 mm | - | 223 W/m² | - |
| 1777568766 | 13.33° C | 85% | 1011.1 hPa | 0 mm | - | 152 W/m² | - |
| 1777568464 | 13.33° C | 84% | 1011.3 hPa | 0 mm | - | 84 W/m² | - |
| 1777568160 | 13.33° C | 85% | 1011.2 hPa | 0 mm | - | 89 W/m² | - |
| 1777567857 | 12.78° C | 85% | 1010.7 hPa | 0 mm | - | 99 W/m² | - |
| 1777567553 | 12.78° C | 85% | 1011 hPa | 0 mm | - | 82 W/m² | - |
| 1777567250 | 13.33° C | 85% | 1010.9 hPa | 0 mm | - | 64 W/m² | - |
| 1777566949 | 12.78° C | 84% | 1010.7 hPa | 0 mm | - | 64 W/m² | - |
| 1777566646 | 13.33° C | 84% | 1010.9 hPa | 0 mm | - | 86 W/m² | - |
| 1777566344 | 13.33° C | 84% | 1010.8 hPa | 0 mm | - | 135 W/m² | - |
| 1777566041 | 12.78° C | 84% | 1010.8 hPa | 0 mm | - | 130 W/m² | - |
| 1777565736 | 12.78° C | 85% | 1011 hPa | 0 mm | - | 111 W/m² | - |
| 1777565433 | 13.33° C | 85% | 1010.7 hPa | 0 mm | - | 115 W/m² | - |
| 1777565129 | 12.78° C | 86% | 1010.9 hPa | 0 mm | - | 130 W/m² | - |
| 1777564826 | 13.33° C | 86% | 1010.9 hPa | 0 mm | - | 99 W/m² | - |
| 1777564521 | 12.78° C | 86% | 1011 hPa | 0 mm | - | 94 W/m² | - |
| 1777564216 | 12.78° C | 86% | 1010.7 hPa | 0 mm | - | 102 W/m² | - |
| 1777563912 | 12.78° C | 87% | 1010.7 hPa | 0 mm | - | 120 W/m² | - |
| 1777563609 | 12.78° C | 89% | 1010.9 hPa | 0 mm | - | 127 W/m² | - |
| 1777563309 | 12.78° C | 90% | 1011 hPa | 0 mm | - | 194 W/m² | - |
| 1777563005 | 12.22° C | 91% | 1011.1 hPa | 0 mm | - | 218 W/m² | - |
| 1777562700 | 12.22° C | 92% | 1011.3 hPa | 0 mm | - | 135 W/m² | - |
| 1777562395 | 11.67° C | 92% | 1011.4 hPa | 0 mm | - | 92 W/m² | - |
| 1777562091 | 11.67° C | 92% | 1011.6 hPa | 0 mm | - | 95 W/m² | - |
| 1777561788 | 11.67° C | 92% | 1011.2 hPa | 0 mm | - | 86 W/m² | - |
* Rain latest hour (hover to see other rain measurements)
** Current wind speed in m/s (hover to see current wind gust speed)